• In India
  • List of Countries
  • For 7 days
  • Water Temperature
  • Satellite Maps
  • Weather Map
  • Weather Widgets
  • user-avatar
    Login

    Hourly Weather Zawadka

    Today, 16 July, Monday

    Time Temperature Precipitation Wind Pressure Humidity
    00:00 +18°C° 0 mm 1 mps 748 mmHg 73%
    01:00 +17°C° 0 mm 2 mps 748 mmHg 72%
    02:00 +16°C° 0 mm 1 mps 748 mmHg 74%
    03:00 +16°C° 0 mm 1 mps 748 mmHg 77%
    04:00 +15°C° 0 mm 1 mps 748 mmHg 79%
    05:00 +18°C° 0 mm 1 mps 748 mmHg 76%
    06:00 +20°C° 0 mm 1 mps 748 mmHg 73%
    07:00 +21°C° 0 mm 1 mps 748 mmHg 69%
    08:00 +23°C° 0 mm 2 mps 748 mmHg 64%
    09:00 +24°C° 0 mm 2 mps 747 mmHg 60%
    10:00 +26°C° 0 mm 3 mps 747 mmHg 55%
    11:00 +27°C° 0 mm 3 mps 747 mmHg 51%
    12:00 +28°C° 0 mm 3 mps 747 mmHg 48%
    13:00 +28°C° 0 mm 3 mps 746 mmHg 45%
    14:00 +28°C° 0.1 mm 3 mps 746 mmHg 46%
    15:00 +28°C° 0.1 mm 3 mps 746 mmHg 46%
    16:00 +28°C° 0.1 mm 3 mps 745 mmHg 47%
    17:00 +27°C° 0 mm 2 mps 745 mmHg 53%
    18:00 +26°C° 0 mm 2 mps 745 mmHg 58%
    19:00 +25°C° 0 mm 1 mps 745 mmHg 64%
    20:00 +23°C° 0.4 mm 1 mps 745 mmHg 69%
    21:00 +21°C° 0.4 mm 2 mps 745 mmHg 73%
    22:00 +19°C° 0.4 mm 2 mps 745 mmHg 78%
    23:00 +19°C° 0.4 mm 2 mps 745 mmHg 82%

    Tomorrow, 17 July, Tuesday

    Time Temperature Precipitation Wind Pressure Humidity
    00:00 +18°C° 0.4 mm 2 mps 744 mmHg 85%
    01:00 +17°C° 0.4 mm 2 mps 744 mmHg 89%
    02:00 +17°C° 0 mm 2 mps 744 mmHg 90%
    03:00 +17°C° 0 mm 2 mps 744 mmHg 92%
    04:00 +17°C° 0 mm 2 mps 744 mmHg 93%
    05:00 +18°C° 0.1 mm 3 mps 744 mmHg 90%
    06:00 +19°C° 0.1 mm 4 mps 744 mmHg 88%
    07:00 +20°C° 0.1 mm 5 mps 744 mmHg 85%
    08:00 +20°C° 0.6 mm 5 mps 744 mmHg 84%
    09:00 +20°C° 0.6 mm 5 mps 744 mmHg 84%
    10:00 +20°C° 0.6 mm 6 mps 744 mmHg 83%
    11:00 +20°C° 0.7 mm 6 mps 744 mmHg 84%
    12:00 +20°C° 0.7 mm 6 mps 744 mmHg 84%
    13:00 +19°C° 0.7 mm 6 mps 744 mmHg 85%
    14:00 +18°C° 0.2 mm 7 mps 744 mmHg 85%
    15:00 +18°C° 0.2 mm 7 mps 744 mmHg 84%
    16:00 +18°C° 0.2 mm 7 mps 744 mmHg 84%
    17:00 +19°C° 0.1 mm 6 mps 744 mmHg 85%
    18:00 +19°C° 0.1 mm 6 mps 744 mmHg 85%
    19:00 +19°C° 0.1 mm 5 mps 744 mmHg 86%
    20:00 +17°C° 0 mm 5 mps 744 mmHg 88%
    21:00 +17°C° 0 mm 5 mps 744 mmHg 90%
    22:00 +17°C° 0 mm 4 mps 744 mmHg 92%
    23:00 +16°C° 0 mm 5 mps 744 mmHg 92%

    Day after tomorrow, 18 July, Wednesday

    Time Temperature Precipitation Wind Pressure Humidity
    00:00 +16°C° 0 mm 5 mps 744 mmHg 92%
    01:00 +16°C° 0 mm 5 mps 744 mmHg 92%
    02:00 +16°C° 0.1 mm 5 mps 744 mmHg 92%
    03:00 +16°C° 0.1 mm 5 mps 744 mmHg 92%
    04:00 +17°C° 0.1 mm 6 mps 744 mmHg 92%
    05:00 +17°C° 0.2 mm 6 mps 744 mmHg 90%
    06:00 +17°C° 0.2 mm 6 mps 744 mmHg 89%
    07:00 +19°C° 0.2 mm 6 mps 744 mmHg 87%
    08:00 +19°C° 0.6 mm 6 mps 745 mmHg 83%
    09:00 +20°C° 0.6 mm 6 mps 745 mmHg 79%
    10:00 +21°C° 0.6 mm 6 mps 745 mmHg 75%
    11:00 +22°C° 0.8 mm 6 mps 745 mmHg 74%
    12:00 +22°C° 0.8 mm 6 mps 745 mmHg 73%
    13:00 +22°C° 0.8 mm 5 mps 745 mmHg 72%
    14:00 +22°C° 0.6 mm 5 mps 745 mmHg 72%
    15:00 +23°C° 0.6 mm 4 mps 745 mmHg 73%
    16:00 +23°C° 0.6 mm 4 mps 745 mmHg 73%
    17:00 +22°C° 0.3 mm 4 mps 745 mmHg 76%
    18:00 +21°C° 0.3 mm 4 mps 745 mmHg 79%
    19:00 +21°C° 0.3 mm 4 mps 746 mmHg 82%
    20:00 +20°C° 0.1 mm 3 mps 746 mmHg 84%
    21:00 +19°C° 0.1 mm 3 mps 746 mmHg 86%
    22:00 +19°C° 0.1 mm 3 mps 746 mmHg 88%
    23:00 +19°C° 0.1 mm 3 mps 746 mmHg 89%

    19 July, Thursday

    Time Temperature Precipitation Wind Pressure Humidity
    00:00 +18°C° 0.1 mm 4 mps 746 mmHg 90%
    01:00 +18°C° 0.1 mm 4 mps 746 mmHg 91%
    02:00 +18°C° 0.3 mm 4 mps 746 mmHg 91%
    03:00 +18°C° 0.3 mm 4 mps 746 mmHg 92%
    04:00 +16°C° 0.3 mm 5 mps 746 mmHg 92%
    05:00 +17°C° 0.4 mm 5 mps 747 mmHg 91%
    06:00 +17°C° 0.4 mm 5 mps 747 mmHg 89%
    07:00 +17°C° 0.4 mm 5 mps 747 mmHg 87%
    08:00 +19°C° 0.6 mm 5 mps 747 mmHg 85%
    09:00 +20°C° 0.6 mm 5 mps 747 mmHg 82%
    10:00 +20°C° 0.6 mm 5 mps 747 mmHg 79%
    11:00 +21°C° 0.5 mm 5 mps 747 mmHg 76%
    12:00 +22°C° 0.5 mm 4 mps 747 mmHg 73%
    13:00 +23°C° 0.5 mm 4 mps 747 mmHg 69%
    14:00 +23°C° 0.1 mm 4 mps 747 mmHg 68%
    15:00 +25°C° 0.1 mm 4 mps 747 mmHg 66%
    16:00 +25°C° 0.1 mm 4 mps 747 mmHg 65%
    17:00 +24°C° 0 mm 3 mps 747 mmHg 69%
    18:00 +22°C° 0 mm 3 mps 747 mmHg 73%
    19:00 +21°C° 0 mm 2 mps 747 mmHg 77%
    20:00 +20°C° 0 mm 2 mps 748 mmHg 80%
    21:00 +19°C° 0 mm 2 mps 748 mmHg 83%
    22:00 +18°C° 0 mm 2 mps 748 mmHg 86%
    23:00 +17°C° 0 mm 2 mps 748 mmHg 86%

    20 July, Friday

    Time Temperature Precipitation Wind Pressure Humidity
    00:00 +17°C° 0 mm 2 mps 748 mmHg 86%
    01:00 +16°C° 0 mm 2 mps 748 mmHg 86%
    02:00 +16°C° 0 mm 2 mps 748 mmHg 86%
    03:00 +15°C° 0 mm 2 mps 748 mmHg 86%
    04:00 +15°C° 0 mm 2 mps 748 mmHg 86%
    05:00 +16°C° 0 mm 3 mps 748 mmHg 81%
    06:00 +17°C° 0 mm 3 mps 748 mmHg 76%
    07:00 +18°C° 0 mm 3 mps 748 mmHg 71%
    08:00 +20°C° 0 mm 3 mps 748 mmHg 63%
    09:00 +22°C° 0 mm 3 mps 748 mmHg 56%
    10:00 +24°C° 0 mm 3 mps 748 mmHg 48%
    11:00 +25°C° 0 mm 3 mps 747 mmHg 45%
    12:00 +26°C° 0 mm 3 mps 747 mmHg 42%
    13:00 +27°C° 0 mm 2 mps 747 mmHg 39%
    14:00 +27°C° 0 mm 2 mps 747 mmHg 38%
    15:00 +27°C° 0 mm 2 mps 746 mmHg 38%
    16:00 +28°C° 0 mm 2 mps 746 mmHg 38%
    17:00 +26°C° 0 mm 2 mps 746 mmHg 44%
    18:00 +25°C° 0 mm 1 mps 746 mmHg 50%
    19:00 +24°C° 0 mm 1 mps 746 mmHg 56%
    20:00 +22°C° 0 mm 1 mps 746 mmHg 60%
    21:00 +20°C° 0 mm 1 mps 746 mmHg 63%
    22:00 +19°C° 0 mm 1 mps 746 mmHg 67%
    23:00 +18°C° 0 mm 1 mps 746 mmHg 69%

    21 July, Saturday

    Time Temperature Precipitation Wind Pressure Humidity
    00:00 +18°C° 0 mm 1 mps 746 mmHg 72%
    01:00 +16°C° 0 mm 1 mps 746 mmHg 74%
    02:00 +16°C° 0 mm 1 mps 746 mmHg 75%
    03:00 +16°C° 0 mm 1 mps 746 mmHg 76%
    04:00 +16°C° 0 mm 1 mps 745 mmHg 77%
    05:00 +18°C° 0 mm 1 mps 746 mmHg 72%
    06:00 +20°C° 0 mm 1 mps 746 mmHg 67%
    07:00 +22°C° 0 mm 1 mps 746 mmHg 63%
    08:00 +23°C° 0 mm 1 mps 746 mmHg 59%
    09:00 +25°C° 0 mm 1 mps 746 mmHg 54%
    10:00 +26°C° 0 mm 1 mps 746 mmHg 50%
    11:00 +27°C° 0 mm 1 mps 745 mmHg 49%
    12:00 +27°C° 0 mm 1 mps 745 mmHg 47%
    13:00 +27°C° 0 mm 1 mps 745 mmHg 45%
    14:00 +27°C° 0 mm 1 mps 745 mmHg 46%
    15:00 +27°C° 0 mm 1 mps 744 mmHg 47%
    16:00 +27°C° 0 mm 1 mps 744 mmHg 47%
    17:00 +26°C° 0 mm 1 mps 744 mmHg 53%
    18:00 +25°C° 0 mm 2 mps 744 mmHg 58%
    19:00 +24°C° 0 mm 2 mps 744 mmHg 64%
    20:00 +23°C° 0 mm 1 mps 744 mmHg 67%
    21:00 +21°C° 0 mm 1 mps 744 mmHg 70%
    22:00 +20°C° 0 mm 1 mps 744 mmHg 74%
    23:00 +19°C° 0 mm 1 mps 745 mmHg 75%
    Show more